W7KKE-3 Weather Reports


time (UTC)temp
F
wind
direction
speed
knots
gust
knots
rain 1hr
in
rain 24hr
in
rain mn
in
humidity
%
barometer
mb
20260904223825 60 32 1.7 3.5 0.27 0.67 0.38 89 1009.0
20260904223325 60 344 0.0 3.5 0.27 0.67 0.36 89 1009.0
20260904222825 60 0 0.9 2.6 0.30 0.67 0.36 89 1009.0
20260904222325 60 331 0.0 0.9 0.30 0.67 0.35 89 1008.9
20260904221825 60 0 0.0 0.0 0.29 0.67 0.35 89 1008.8
20260904221326 60 0 0.0 0.0 0.29 0.67 0.33 89 1008.8
20260904220326 61 0 0.0 2.6 0.22 0.67 0.28 88 1008.8
20260904215825 61 334 0.0 2.6 0.17 0.62 0.22 88 1008.7
20260904215325 61 2 0.0 2.6 0.17 0.62 0.20 88 1008.7
20260904214825 61 345 1.7 1.7 0.13 0.62 0.19 88 1008.6
20260904214326 62 0 0.0 1.7 0.13 0.62 0.16 88 1008.7
20260904213825 62 338 0.0 1.7 0.07 0.62 0.13 88 1008.6
20260904213325 62 18 0.9 0.9 0.07 0.62 0.10 88 1008.5
20260904212825 61 329 0.0 5.2 0.03 0.62 0.08 87 1008.5
20260904212325 62 316 0.9 5.2 0.03 0.62 0.06 87 1008.3
20260904211825 62 323 2.6 5.2 0.01 0.62 0.04 87 1008.2
20260904211326 62 295 2.6 7.0 0.01 0.62 0.03 87 1008.2
20260904210826 62 336 1.7 7.0 0.00 0.62 0.03 86 1008.2
20260904210325 62 334 3.5 7.0 0.00 0.62 0.03 86 1008.1
20260904205825 62 323 4.3 7.0 0.00 0.63 0.02 85 1008.1
20260904205325 62 337 4.3 6.1 0.00 0.63 0.02 85 1008.0
20260904204825 62 7 4.3 8.7 0.00 0.63 0.02 85 1008.0
20260904204326 63 331 5.2 8.7 0.00 0.63 0.02 85 1008.0
20260904203825 63 357 5.2 8.7 0.00 0.63 0.02 84 1007.9
20260904203325 64 320 6.1 9.6 0.00 0.63 0.02 84 1007.9
20260904202825 64 315 6.1 9.6 0.00 0.63 0.02 83 1007.9
20260904202325 65 306 4.3 9.6 0.00 0.63 0.02 84 1007.8
20260904201825 65 337 5.2 7.8 0.00 0.63 0.02 85 1007.8
20260904201326 65 310 4.3 7.8 0.00 0.63 0.02 84 1007.9
20260904200325 65 336 5.2 7.8 0.00 0.63 0.02 85 1007.9
20260904195825 65 327 3.5 6.1 0.00 0.65 0.02 85 1007.9
20260904195325 65 327 1.7 6.1 0.00 0.65 0.02 84 1007.9
20260904194825 65 287 3.5 6.1 0.00 0.65 0.02 84 1007.8
20260904194326 65 287 2.6 5.2 0.00 0.65 0.02 87 1007.8
20260904193825 63 322 1.7 1.7 0.00 0.65 0.02 88 1007.8
20260904193325 63 319 0.0 1.7 0.00 0.65 0.02 86 1007.8
20260904192825 63 256 0.9 1.7 0.00 0.65 0.02 86 1007.8
20260904192325 64 277 0.0 1.7 0.00 0.65 0.02 85 1007.7
20260904191825 64 282 0.9 6.1 0.00 0.65 0.02 85 1007.8
20260904191326 64 292 2.6 6.1 0.00 0.65 0.02 85 1007.8
20260904190825 64 175 2.6 6.1 0.00 0.65 0.02 85 1007.8
20260904190325 64 205 1.7 5.2 0.00 0.65 0.02 85 1007.8
20260904185825 65 155 1.7 3.5 0.00 0.69 0.02 86 1007.7
20260904185325 65 271 2.6 6.1 0.00 0.69 0.02 86 1007.6
20260904184825 65 281 0.9 6.1 0.00 0.69 0.02 85 1007.6
20260904184326 65 294 0.9 6.1 0.00 0.69 0.02 86 1007.6
20260904183825 65 165 1.7 6.1 0.00 0.69 0.02 85 1007.5
20260904183325 65 329 2.6 6.1 0.00 0.69 0.02 85 1007.5
20260904182825 65 303 1.7 6.1 0.00 0.69 0.02 85 1007.5
20260904182325 65 323 3.5 6.1 0.00 0.69 0.02 86 1007.4
20260904181825 65 198 1.7 6.1 0.00 0.69 0.02 87 1007.4
20260904181326 65 158 0.0 6.1 0.00 0.69 0.02 86 1007.4
20260904180825 65 103 1.7 2.6 0.00 0.69 0.02 88 1007.4
20260904180325 65 141 0.9 4.3 0.00 0.69 0.02 88 1007.4
20260904175825 64 186 0.9 4.3 0.00 0.75 0.02 89 1007.3
20260904175325 64 120 1.7 4.3 0.00 0.75 0.02 90 1007.3
20260904174825 64 336 0.0 3.5 0.00 0.75 0.02 91 1007.2
20260904174326 63 344 1.7 4.3 0.00 0.75 0.02 91 1007.2
20260904173825 63 218 0.9 4.3 0.00 0.75 0.02 92 1007.1
20260904173325 62 78 0.0 4.3 0.00 0.75 0.02 93 1007.1
20260904172825 61 239 0.0 3.5 0.00 0.75 0.02 92 1007.1
20260904172325 60 144 0.9 2.6 0.00 0.75 0.02 93 1007.1
20260904171825 60 124 0.9 2.6 0.00 0.75 0.02 92 1007.1
20260904171326 59 242 0.0 6.1 0.00 0.75 0.02 92 1007.0
20260904170825 59 113 0.9 6.1 0.00 0.75 0.02 92 1006.9
20260904170325 59 133 0.9 6.1 0.00 0.75 0.02 92 1006.8
20260904165826 59 106 0.9 5.2 0.00 0.84 0.02 92 1006.9
20260904165325 59 343 1.7 4.3 0.00 0.84 0.02 92 1006.8
20260904164825 59 40 1.7 3.5 0.00 0.84 0.02 92 1006.8
20260904164326 59 79 0.9 3.5 0.00 0.84 0.02 92 1006.7
20260904163825 59 306 1.7 2.6 0.00 0.84 0.02 92 1006.7
20260904163418 58 172 0.0 2.6 0.00 0.84 0.02 92 1006.7
20260904163325 58 172 0.0 2.6 0.00 0.84 0.02 92 1006.7
20260904162825 58 166 0.0 2.6 0.00 0.84 0.02 92 1006.7
20260904162325 58 246 1.7 1.7 0.00 0.84 0.02 92 1006.7
20260904161825 58 124 0.0 3.5 0.00 0.84 0.02 92 1006.8
20260904161326 58 291 1.7 3.5 0.00 0.84 0.02 92 1006.8
20260904160825 58 263 1.7 3.5 0.00 0.84 0.02 92 1006.7
20260904160325 57 289 0.9 3.5 0.00 0.84 0.02 92 1006.7
20260904155325 57 275 0.0 2.6 0.00 0.91 0.02 92 1006.7
20260904154825 57 253 0.0 3.5 0.00 0.91 0.02 92 1006.6
20260904154326 57 229 0.9 3.5 0.00 0.91 0.02 92 1006.6
20260904153825 57 285 0.9 3.5 0.00 0.91 0.02 92 1006.6
20260904153325 57 270 0.9 3.5 0.00 0.91 0.02 92 1006.6
20260904152825 56 240 0.0 3.5 0.00 0.91 0.02 92 1006.5
20260904152325 56 242 0.0 3.5 0.00 0.91 0.02 92 1006.4
20260904151825 56 148 0.9 3.5 0.00 0.91 0.02 92 1006.3
20260904151421 56 246 0.9 2.6 0.00 0.91 0.02 92 1006.3
20260904151326 56 246 0.9 2.6 0.00 0.91 0.02 92 1006.3
20260904150825 56 208 0.0 2.6 0.00 0.91 0.02 92 1006.2
20260904150325 56 186 0.0 4.3 0.00 0.91 0.02 92 1006.2
20260904145325 56 151 0.0 4.3 0.00 1.00 0.02 92 1006.0
20260904144918 56 277 0.9 4.3 0.00 1.00 0.02 92 1005.9
20260904144825 56 277 0.9 4.3 0.00 1.00 0.02 92 1005.9
20260904144326 56 268 0.0 3.5 0.00 1.00 0.02 92 1005.9
20260904143825 55 261 0.0 3.5 0.01 1.00 0.02 92 1005.8
20260904143325 56 236 0.9 2.6 0.01 1.00 0.02 92 1005.8
20260904142825 56 224 0.9 2.6 0.01 1.00 0.02 92 1005.7
20260904142325 55 294 0.0 1.7 0.01 1.00 0.02 92 1005.8
20260904141326 55 271 0.0 4.3 0.01 1.00 0.02 92 1005.6
20260904140825 55 98 1.7 4.3 0.01 1.00 0.02 92 1005.5
20260904140325 56 197 0.9 3.5 0.01 1.00 0.02 92 1005.4
20260904135825 55 236 0.0 3.5 0.01 1.08 0.02 92 1005.3
20260904134825 56 217 0.0 2.6 0.01 1.08 0.02 92 1005.2
20260904134326 55 264 0.9 4.3 0.01 1.08 0.02 92 1005.2
20260904133825 56 261 0.0 4.3 0.00 1.08 0.02 92 1005.1
20260904133325 55 102 1.7 4.3 0.00 1.08 0.01 92 1005.0
20260904132825 55 201 1.7 2.6 0.00 1.08 0.01 92 1005.1
20260904132325 55 198 0.0 3.5 0.00 1.08 0.01 92 1005.0
20260904131825 55 253 0.0 3.5 0.00 1.08 0.01 92 1005.0
20260904131326 55 253 0.0 3.5 0.00 1.08 0.01 92 1005.0
20260904130825 55 298 0.9 2.6 0.00 1.08 0.01 92 1004.9
20260904130325 55 282 0.0 3.5 0.00 1.08 0.01 92 1004.8
20260904125825 55 273 0.0 3.5 0.00 1.11 0.01 92 1004.9
20260904125325 55 249 0.0 3.5 0.00 1.11 0.01 92 1004.8
20260904124825 55 208 0.9 2.6 0.00 1.11 0.01 92 1004.7
20260904123825 55 100 0.0 3.5 0.00 1.11 0.01 92 1004.7
20260904123325 55 236 0.0 3.5 0.00 1.11 0.01 92 1004.6
20260904122825 55 147 0.0 3.5 0.00 1.11 0.01 92 1004.6
20260904122325 55 273 0.0 3.5 0.00 1.11 0.01 92 1004.6
20260904121825 55 215 0.0 3.5 0.00 1.11 0.01 92 1004.6
20260904121326 55 84 0.0 1.7 0.00 1.11 0.01 92 1004.7
20260904120825 55 225 0.0 3.5 0.00 1.11 0.01 92 1004.7
20260904120443 55 140 0.0 3.5 0.00 1.11 0.01 92 1004.6
20260904120325 55 140 0.0 3.5 0.00 1.11 0.01 92 1004.6
20260904115825 55 210 0.0 3.5 0.00 1.11 0.01 92 1004.6
20260904115325 55 105 0.9 2.6 0.00 1.11 0.01 92 1004.6
20260904114825 55 193 0.0 2.6 0.00 1.11 0.01 92 1004.6
20260904114326 55 218 0.9 2.6 0.00 1.11 0.01 92 1004.6
20260904113825 55 249 0.0 1.7 0.00 1.11 0.01 92 1004.5
20260904113325 55 190 0.0 1.7 0.00 1.11 0.01 92 1004.5
20260904112950 55 161 0.0 1.7 0.00 1.11 0.01 92 1004.5
20260904112825 55 161 0.0 1.7 0.00 1.11 0.01 92 1004.5
20260904112325 55 239 0.0 0.9 0.00 1.11 0.01 92 1004.5
20260904111825 55 243 0.0 0.9 0.00 1.11 0.01 92 1004.4
20260904111326 56 214 0.0 3.5 0.00 1.11 0.01 92 1004.3
20260904110825 56 149 0.0 3.5 0.00 1.11 0.01 92 1004.3
20260904110325 56 225 0.0 3.5 0.00 1.11 0.01 92 1004.2
20260904105825 56 280 0.0 3.5 0.00 1.24 0.01 92 1004.3
20260904104825 56 121 0.0 3.5 0.00 1.24 0.01 92 1004.3
20260904104326 56 242 0.0 5.2 0.00 1.24 0.01 92 1004.2
20260904103325 56 99 0.9 5.2 0.00 1.24 0.01 92 1004.2
20260904102825 56 86 0.9 4.3 0.00 1.24 0.01 92 1004.2
20260904102325 56 245 0.0 3.5 0.00 1.24 0.01 92 1004.2
20260904101825 56 225 0.9 3.5 0.00 1.24 0.01 92 1004.2
20260904101326 56 177 1.7 2.6 0.00 1.24 0.01 92 1004.2
20260904100825 56 186 0.9 4.3 0.00 1.24 0.01 92 1004.2
20260904100325 56 186 1.7 4.3 0.00 1.24 0.01 92 1004.2
20260904095825 56 200 0.9 4.3 0.00 1.32 0.01 92 1004.2
20260904095325 56 151 2.6 2.6 0.00 1.32 0.01 92 1004.2
20260904094825 56 175 0.0 2.6 0.00 1.32 0.01 92 1004.2
20260904094326 56 273 0.9 2.6 0.00 1.32 0.01 92 1004.2
20260904093825 56 281 0.0 2.6 0.00 1.32 0.01 92 1004.2
20260904093325 56 5 0.0 2.6 0.00 1.32 0.01 92 1004.2
20260904092825 56 264 0.0 1.7 0.00 1.32 0.01 92 1004.1
20260904092325 56 238 0.0 0.0 0.00 1.32 0.01 92 1004.1
20260904091825 56 53 0.0 2.6 0.00 1.32 0.01 92 1004.0
20260904091326 56 189 0.0 2.6 0.00 1.32 0.01 92 1003.9
20260904090825 56 238 0.0 2.6 0.00 1.32 0.01 92 1003.9
20260904090325 56 239 0.0 2.6 0.00 1.32 0.01 92 1003.9
20260904085825 56 239 0.0 2.6 0.00 1.32 0.01 92 1003.9
20260904085325 56 176 0.0 3.5 0.00 1.32 0.01 92 1003.9
20260904084825 56 215 0.9 3.5 0.00 1.32 0.01 92 1003.8
20260904084326 56 200 0.0 3.5 0.00 1.32 0.01 92 1003.8
20260904083825 56 231 1.7 4.3 0.01 1.32 0.01 92 1003.8
20260904083325 56 196 0.9 4.3 0.01 1.32 0.01 92 1003.8
20260904082825 56 204 0.0 4.3 0.01 1.32 0.01 92 1003.8
20260904082325 56 197 0.0 4.3 0.01 1.32 0.01 92 1003.8
20260904081825 56 298 0.0 4.3 0.01 1.32 0.01 92 1003.8
20260904081326 56 289 0.0 4.3 0.01 1.32 0.01 91 1003.8
20260904080825 56 299 2.6 2.6 0.01 1.32 0.01 91 1003.7
20260904080325 56 264 0.0 4.3 0.01 1.32 0.01 91 1003.7
20260904075825 56 240 0.0 4.3 0.01 1.31 0.01 91 1003.7
20260904075325 56 242 0.0 4.3 0.01 1.31 0.01 91 1003.7
20260904074825 56 154 0.9 4.3 0.01 1.31 0.01 91 1003.7
20260904074326 56 144 0.0 4.3 0.01 1.31 0.01 91 1003.8
20260904073825 56 268 0.9 2.6 0.00 1.31 0.01 91 1003.7
20260904073325 56 229 0.9 5.2 0.00 1.31 0.00 91 1003.7
20260904072825 56 233 0.9 5.2 0.00 1.31 0.00 91 1003.8
20260904072325 56 158 0.0 5.2 0.00 1.31 0.00 91 1003.7
20260904071825 56 275 0.9 3.5 0.00 1.31 0.00 91 1003.6
20260904071326 56 137 0.0 3.5 0.00 1.31 0.00 91 1003.7
20260904070825 56 194 0.9 3.5 0.00 1.31 0.00 91 1003.7
20260904070325 56 240 0.0 2.6 0.00 1.31 0.00 91 1003.6
20260904065826 57 266 0.0 3.5 0.00 1.31 0.00 91 1003.6
20260904065325 57 201 0.0 3.5 0.00 1.31 1.31 91 1003.6
20260904064825 57 182 0.0 3.5 0.00 1.31 1.31 91 1003.6
20260904064326 57 84 0.9 3.5 0.00 1.31 1.31 91 1003.7
20260904063825 57 231 0.0 3.5 0.00 1.31 1.31 91 1003.7
20260904063325 57 250 0.0 3.5 0.00 1.31 1.31 91 1003.7
20260904062825 57 190 0.0 3.5 0.00 1.31 1.31 91 1003.7
20260904062325 57 320 0.9 1.7 0.00 1.31 1.31 91 1003.8
20260904061825 57 221 0.9 1.7 0.00 1.31 1.31 91 1003.8
20260904061326 57 273 0.0 2.6 0.00 1.31 1.31 91 1003.8
20260904060825 57 289 0.0 2.6 0.00 1.31 1.31 91 1003.9
20260904060325 57 275 0.9 2.6 0.00 1.31 1.31 91 1004.0
20260904055825 57 257 0.0 1.7 0.00 1.31 1.31 91 1004.0
20260904055325 57 266 0.0 1.7 0.00 1.31 1.31 91 1004.1
20260904054825 57 301 0.0 1.7 0.07 1.31 1.31 91 1004.0
20260904054326 57 140 0.0 1.7 0.07 1.31 1.31 91 1004.1
20260904053918 57 215 0.0 2.6 0.13 1.31 1.31 91 1004.2
20260904053825 57 215 0.0 2.6 0.13 1.31 1.31 91 1004.2
20260904053325 57 257 0.9 2.6 0.13 1.31 1.31 91 1004.1
20260904052825 57 201 0.0 2.6 0.17 1.31 1.31 91 1004.1
20260904052326 57 82 0.9 4.3 0.17 1.31 1.31 91 1004.2
20260904051825 57 112 0.0 4.3 0.19 1.31 1.31 91 1004.2
20260904051326 57 198 0.9 4.3 0.19 1.31 1.31 91 1004.2
20260904050825 57 323 1.7 1.7 0.19 1.31 1.31 91 1004.3
20260904050325 57 333 0.0 1.7 0.19 1.31 1.31 91 1004.2
20260904045825 57 106 0.9 2.6 0.19 1.31 1.31 91 1004.3
20260904045325 57 137 1.7 2.6 0.19 1.31 1.31 91 1004.4
20260904044825 57 110 0.0 2.6 0.13 1.31 1.31 91 1004.4
20260904044326 57 107 0.0 1.7 0.13 1.26 1.27 91 1004.3
20260904043825 57 112 0.0 1.7 0.07 1.22 1.22 91 1004.4
20260904043326 57 103 0.0 1.7 0.07 1.19 1.19 91 1004.3
20260904042825 57 92 0.0 1.7 0.04 1.17 1.17 91 1004.3
20260904042325 57 137 0.0 0.9 0.04 1.15 1.15 91 1004.3
20260904041825 57 180 0.0 0.9 0.02 1.13 1.13 91 1004.3
20260904041326 57 120 0.0 3.5 0.02 1.12 1.12 91 1004.2
20260904040825 57 74 0.0 3.5 0.03 1.12 1.12 91 1004.2
20260904040325 57 163 0.0 3.5 0.03 1.12 1.12 91 1004.2
20260904035826 58 124 0.0 2.6 0.05 1.12 1.12 91 1004.1
20260904035325 58 236 0.0 3.5 0.05 1.12 1.12 91 1004.1
20260904034825 58 204 0.0 3.5 0.07 1.11 1.11 91 1004.2
20260904033825 58 103 1.7 2.6 0.07 1.11 1.11 91 1004.0
20260904033325 58 84 0.0 2.6 0.07 1.11 1.11 91 1004.0
20260904032825 58 152 0.9 2.6 0.07 1.11 1.11 91 1003.9
20260904032325 58 88 0.0 2.6 0.07 1.11 1.11 91 1003.8
20260904031825 58 176 0.0 4.3 0.09 1.10 1.10 90 1003.9
20260904031326 58 93 0.0 4.3 0.09 1.10 1.10 90 1003.9
20260904030825 58 85 0.0 4.3 0.08 1.10 1.10 90 1003.8
20260904030325 58 155 1.7 3.5 0.08 1.09 1.09 90 1003.8
20260904025825 58 86 0.9 3.5 0.06 1.08 1.08 90 1003.8
20260904025325 58 68 0.0 5.2 0.06 1.07 1.08 90 1003.9
20260904024825 58 95 0.9 5.2 0.03 1.05 1.05 90 1003.9
20260904024326 58 149 0.0 5.2 0.03 1.04 1.04 90 1003.8
20260904023825 58 110 1.7 2.6 0.03 1.04 1.04 90 1003.8
20260904023325 59 102 0.0 7.8 0.03 1.04 1.04 90 1003.8
20260904022825 59 88 1.7 7.8 0.02 1.04 1.04 90 1003.8
20260904022325 59 161 1.7 7.8 0.02 1.04 1.04 90 1003.8
20260904021825 59 161 3.5 7.0 0.00 1.02 1.03 90 1003.9
20260904021326 59 197 1.7 5.2 0.00 1.01 1.02 90 1003.9
20260904020825 59 85 1.7 3.5 0.00 1.01 1.01 90 1003.8
20260904020325 59 113 1.7 3.5 0.00 1.01 1.01 90 1003.8
20260904015825 59 85 0.9 3.5 0.00 1.01 1.01 90 1003.7
20260904015325 59 128 0.9 4.3 0.00 1.01 1.01 90 1003.8
20260904014825 59 92 1.7 4.3 0.01 1.01 1.01 90 1003.7
20260904014326 59 79 1.7 4.3 0.01 1.01 1.01 90 1003.7
20260904013825 59 133 1.7 3.5 0.01 1.01 1.01 90 1003.8
20260904013325 59 78 1.7 7.0 0.01 1.01 1.01 90 1003.8
20260904012825 59 137 0.9 7.0 0.01 1.01 1.01 90 1003.7
20260904012325 59 179 1.7 7.0 0.01 1.01 1.01 90 1003.8
20260904011825 59 148 2.6 5.2 0.01 1.01 1.01 90 1003.8
20260904011326 59 138 1.7 5.2 0.01 1.01 1.01 90 1003.8
20260904010825 59 172 3.5 5.2 0.01 1.01 1.01 90 1003.8
20260904010325 59 163 2.6 8.7 0.01 1.01 1.01 90 1003.8
20260904005825 59 149 1.7 8.7 0.01 1.01 1.01 90 1003.8
20260904005325 59 226 1.7 8.7 0.01 1.01 1.01 90 1003.8
20260904004825 59 99 3.5 7.0 0.00 1.01 1.01 90 1003.8
20260904004326 59 170 1.7 10.4 0.00 1.00 1.00 90 1003.8
20260904003825 59 163 2.6 10.4 0.02 1.00 1.00 90 1003.8
20260904003325 59 163 2.6 10.4 0.02 1.00 1.00 90 1003.9
20260904002825 59 180 4.3 8.7 0.04 1.00 1.00 90 1003.9
20260904002325 59 93 1.7 8.7 0.04 1.00 1.00 90 1003.9
20260904001825 59 197 3.5 8.7 0.05 1.00 1.00 90 1003.8
20260904001326 59 113 3.5 9.6 0.05 1.00 1.00 90 1003.8
20260904000825 59 75 0.9 9.6 0.06 1.00 1.00 90 1003.8
20260904000325 59 182 3.5 9.6 0.06 1.00 1.00 90 1003.8
20260903235325 59 170 1.7 5.2 0.08 1.00 1.00 90 1003.9
20260903234825 59 182 1.7 8.7 0.08 1.00 1.00 90 1003.9
20260903234326 59 221 2.6 8.7 0.08 1.00 1.00 90 1003.8
20260903233325 59 114 2.6 6.1 0.07 0.98 0.98 90 1003.9
20260903232825 59 71 3.5 8.7 0.05 0.98 0.98 90 1003.9
20260903232325 59 106 2.6 8.7 0.05 0.97 0.97 90 1004.0
20260903231825 60 119 1.7 8.7 0.06 0.96 0.96 90 1004.1
20260903231326 60 187 6.1 7.0 0.06 0.95 0.96 90 1004.1
20260903230825 60 154 3.5 7.0 0.06 0.95 0.95 90 1004.1
20260903230325 59 163 2.6 7.0 0.06 0.94 0.94 90 1004.2
20260903230035 59 170 0.9 8.7 0.05 0.93 0.94 90 1004.2
20260903225825 59 170 0.9 8.7 0.05 0.93 0.94 90 1004.2
20260903225325 59 100 0.9 8.7 0.05 0.93 0.93 90 1004.2
20260903224825 59 173 3.5 8.7 0.05 0.92 0.92 90 1004.2
20260903224326 59 135 1.7 6.1 0.05 0.92 0.92 90 1004.3